Torna al catalogo

CZ-4B DEB

AttivoLEO
NORAD 48625·DEBRIS·🇨🇳 China

Lanciato May 19, 2021 da Jiuquan Satellite Launch Center

Loading…

Prossimi Passaggi (prossime 24 ore)

TLE

In scadenzaSource: Space-Track

Epoca: Sep 12, 2026, 01:07 UTC

1 48625U 21043E   26255.04667523  .00001225  00000-0  91794-3 0  9991
2 48625  66.1682  45.6936 0046511 220.7010 139.0588 13.97643203270380

Traccia CZ-4B DEB in tempo reale con AllMySat

Download on the App Store